Mount Airy, NC

2:58 AM EST on December 09, 2019 (GMT -0500)
Mount Airy-Surry County

Weather History for KMWK - October, 2019

Change the Weather History Date:

Friday, October 18, 2019

  Actual Average (KINT) Record (KINT)
Temperature  
Mean Temperature 54 °F -  
Max Temperature 67 °F 67 °F 82 °F (2016)
Min Temperature 40 °F 47 °F 29 °F (1970)
Degree Days  
Heating Degree Days 12    
Growing Degree Days 4 (Base 50)    
Moisture  
Dew Point 38 °F    
Average Humidity 61    
Maximum Humidity 88    
Minimum Humidity 25    
Precipitation  
Precipitation 0.00 in - - ()
Sea Level Pressure  
Sea Level Pressure 30.03 in    
Wind  
Wind Speed 1 mph ()    
Max Wind Speed 9 mph    
Max Gust Speed -    
Visibility 9.6 miles    
Events      
Averages and records for this station are not official NWS values.
T = Trace of Precipitation, MM = Missing Value Source: Averaged Metar Reports

Daily Weather History Graph

Daily Weather History Graph

Search for Another Location

Airport or City:

Astronomy

Oct. 18, 2019 Rise Set
Actual Time 7:31 AM EDT 6:42 PM EDT
Civil Twilight 7:05 AM EDT 7:08 PM EDT
Nautical Twilight 6:35 AM EDT 7:38 PM EDT
Astronomical Twilight 6:05 AM EDT 8:08 PM EDT
Moon 10:04 PM EDT (10/18) 11:57 AM EDT (10/18)
Length of Visible Light 12h 02m
Length of Day
11h 10m
Waning Gibbous, 79% of the Moon is Illuminated
Oct 18
Waning Gibbous
Oct 21
Last Quarter
Oct 27
New
Nov 4
First Quarter
Nov 12
Full

Hourly Weather History & Observations

Time (EDT) Temp. Windchill Dew Point Humidity Pressure Visibility Wind Dir Wind Speed Gust Speed Precip Events Conditions
12:15 AM 43.5 °F - 39.2 °F 85% 29.97 in 10.0 mi Calm Calm - N/A   Clear
12:35 AM 43.3 °F - 39.2 °F 85% 29.97 in 10.0 mi Calm Calm - N/A   Clear
12:55 AM 43.9 °F - 38.8 °F 82% 29.97 in 10.0 mi Calm Calm - N/A   Clear
1:15 AM 43.7 °F - 38.3 °F 81% 29.97 in 10.0 mi Calm Calm - N/A   Clear
1:35 AM 45.7 °F - 37.9 °F 74% 29.98 in 10.0 mi Calm Calm - N/A   Clear
1:55 AM 46.6 °F - 37.8 °F 71% 29.98 in 10.0 mi Calm Calm - N/A   Clear
2:15 AM 44.6 °F - 38.1 °F 78% 29.98 in 10.0 mi Calm Calm - N/A   Clear
2:35 AM 46.6 °F - 37.6 °F 71% 29.97 in 10.0 mi Calm Calm - N/A   Clear
2:55 AM 45.7 °F - 37.8 °F 74% 29.97 in 10.0 mi Calm Calm - N/A   Clear
3:15 AM 45.7 °F - 37.8 °F 74% 29.97 in 10.0 mi Calm Calm - N/A   Clear
3:35 AM 45.0 °F - 37.9 °F 76% 29.99 in 10.0 mi Calm Calm - N/A   Clear
3:55 AM 44.8 °F - 37.8 °F 76% 29.99 in 10.0 mi Calm Calm - N/A   Clear
4:15 AM 45.0 °F - 37.8 °F 76% 29.99 in 10.0 mi Calm Calm - N/A   Clear
4:35 AM 41.7 °F - 37.4 °F 85% 30.00 in 10.0 mi Calm Calm - N/A   Clear
4:55 AM 45.5 °F - 37.6 °F 74% 30.00 in 10.0 mi Calm Calm - N/A   Clear
5:15 AM 46.0 °F - 37.4 °F 72% 30.01 in 10.0 mi Calm Calm - N/A   Clear
5:35 AM 44.2 °F - 37.8 °F 78% 30.02 in 10.0 mi Calm Calm - N/A   Clear
5:55 AM 42.4 °F - 37.4 °F 82% 30.02 in 10.0 mi Calm Calm - N/A   Clear
6:15 AM 40.8 °F - 36.9 °F 86% 30.02 in 10.0 mi Calm Calm - N/A   Clear
6:35 AM 42.1 °F 40.2 °F 37.4 °F 83% 30.02 in 10.0 mi WNW 3.5 mph - N/A   Clear
6:55 AM 43.0 °F 40.3 °F 37.0 °F 80% 30.02 in 10.0 mi SSE 4.6 mph - N/A   Clear
7:15 AM 40.3 °F 38.2 °F 36.7 °F 87% 30.03 in 10.0 mi SSE 3.5 mph - N/A   Clear
7:35 AM 42.8 °F - 37.6 °F 82% 30.02 in 10.0 mi Calm Calm - N/A   Clear
7:55 AM 40.5 °F - 37.0 °F 88% 30.03 in 10.0 mi Calm Calm - N/A   Clear
8:15 AM 43.0 °F 41.3 °F 38.3 °F 84% 30.03 in 10.0 mi South 3.5 mph - N/A   Clear
8:35 AM 45.5 °F - 39.4 °F 79% 30.04 in 10.0 mi Calm Calm - N/A   Clear
8:55 AM 49.5 °F - 41.2 °F 73% 30.04 in 10.0 mi Calm Calm - N/A   Clear
9:15 AM 52.2 °F - 40.3 °F 64% 30.05 in 10.0 mi NW 3.5 mph - N/A   Clear
9:35 AM 53.6 °F - 40.5 °F 61% 30.05 in 10.0 mi NNW 6.9 mph - N/A   Clear
9:55 AM 54.9 °F - 41.2 °F 60% 30.05 in 10.0 mi NNW 3.5 mph - N/A   Clear
10:15 AM 55.6 °F - 40.1 °F 56% 30.06 in 10.0 mi NW 3.5 mph - N/A   Clear
10:35 AM 57.2 °F - 39.7 °F 52% 30.06 in 10.0 mi North 6.9 mph - N/A   Clear
10:55 AM 57.6 °F - 39.2 °F 50% 30.06 in 10.0 mi North 4.6 mph - N/A   Clear
11:15 AM 59.2 °F - 39.0 °F 47% 30.06 in 10.0 mi North 6.9 mph - N/A   Clear
11:35 AM 59.4 °F - 38.7 °F 46% 30.07 in 10.0 mi NW 3.5 mph - N/A   Clear
11:55 AM 59.9 °F - 38.3 °F 45% 30.07 in 10.0 mi NNW 3.5 mph - N/A   Clear
12:15 PM 60.4 °F - 38.1 °F 44% 30.07 in 10.0 mi West 5.8 mph - N/A   Clear
12:35 PM 61.7 °F - 39.0 °F 43% 30.07 in 10.0 mi West 3.5 mph - N/A   Clear
12:55 PM 63.1 °F - 37.9 °F 39% 30.07 in 10.0 mi NW 9.2 mph - N/A   Clear
1:15 PM 63.5 °F - 37.8 °F 39% 30.05 in 10.0 mi North 4.6 mph - N/A   Clear
1:35 PM 63.1 °F - 37.2 °F 38% 30.05 in 10.0 mi Calm Calm - N/A   Clear
1:55 PM 64.4 °F - 36.1 °F 35% 30.04 in 10.0 mi WNW 3.5 mph - N/A   Clear
2:15 PM 64.6 °F - 34.2 °F 32% 30.04 in 10.0 mi NW 4.6 mph - N/A   Clear
2:35 PM 65.5 °F - 33.8 °F 31% 30.03 in 10.0 mi Calm Calm - N/A   Clear
2:55 PM 66.7 °F - 34.3 °F 30% 30.02 in 10.0 mi Calm Calm - N/A   Clear
3:15 PM 66.6 °F - 32.2 °F 28% 30.01 in 10.0 mi North 5.8 mph - N/A   Clear
3:35 PM 67.6 °F - 31.6 °F 26% 30.00 in 10.0 mi NNE 4.6 mph - N/A   Clear
3:55 PM 67.5 °F - 31.8 °F 27% 30.01 in 10.0 mi Calm Calm - N/A   Clear
4:15 PM 67.3 °F - 31.1 °F 26% 30.01 in 10.0 mi Calm Calm - N/A   Clear
4:35 PM 67.8 °F - 30.6 °F 25% 30.02 in 10.0 mi Calm Calm - N/A   Clear
4:55 PM 67.1 °F - 29.8 °F 25% 30.02 in 10.0 mi NNE 3.5 mph - N/A   Clear
5:15 PM 67.5 °F - 30.0 °F 25% 30.02 in 10.0 mi Calm Calm - N/A   Clear
5:35 PM 67.3 °F - 31.5 °F 26% 30.02 in 10.0 mi NE 3.5 mph - N/A   Clear
5:55 PM 66.2 °F - 31.1 °F 27% 30.02 in 7.0 mi Calm Calm - N/A   Clear
6:15 PM 63.7 °F - 35.4 °F 35% 30.02 in 10.0 mi Calm Calm - N/A   Clear
6:35 PM 61.2 °F - 39.9 °F 46% 30.02 in 10.0 mi Calm Calm - N/A   Clear
6:55 PM 57.2 °F - 43.3 °F 60% 30.03 in 10.0 mi Calm Calm - N/A   Clear
7:15 PM 56.1 °F - 44.1 °F 64% 30.04 in 10.0 mi Calm Calm - N/A   Clear
7:35 PM 52.9 °F - 45.0 °F 74% 30.05 in 10.0 mi Calm Calm - N/A   Clear
7:55 PM 55.2 °F - 43.7 °F 65% 30.05 in 1.8 mi Calm Calm - N/A   Haze
8:15 PM 52.5 °F - 43.7 °F 72% 30.05 in 1.2 mi Calm Calm - N/A   Haze
8:35 PM 52.5 °F - 43.5 °F 71% 30.05 in 3.0 mi Calm Calm - N/A   Haze
8:55 PM 54.1 °F - 42.8 °F 66% 30.05 in 10.0 mi Calm Calm - N/A   Clear
9:15 PM 54.1 °F - 43.0 °F 66% 30.06 in 10.0 mi Calm Calm - N/A   Clear
9:35 PM 52.5 °F - 42.8 °F 70% 30.07 in 10.0 mi Calm Calm - N/A   Clear
9:55 PM 51.1 °F - 43.3 °F 75% 30.07 in 10.0 mi Calm Calm - N/A   Clear
10:15 PM 50.9 °F - 43.7 °F 76% 30.06 in 10.0 mi Calm Calm - N/A   Clear
10:35 PM 50.4 °F - 43.5 °F 77% 30.06 in 10.0 mi Calm Calm - N/A   Clear
10:55 PM 48.9 °F - 43.2 °F 80% 30.06 in 10.0 mi Calm Calm - N/A   Clear
11:15 PM 48.6 °F - 42.6 °F 80% 30.07 in 10.0 mi Calm Calm - N/A   Clear
11:35 PM 47.7 °F - 42.4 °F 82% 30.07 in 10.0 mi Calm Calm - N/A   Clear
11:55 PM 47.3 °F - 42.3 °F 83% 30.07 in 10.0 mi Calm Calm - N/A   Clear